FW6267 Weather Reports


time (UTC)temp
C
wind
direction
speed
KPH
gust
KPH
rain 1hr
cm
rain 24hr
cm
rain mn
cm
humidity
%
barometer
mb
20260506212059 6 20 4.8 14.5 0.10 1.98 1.98 94 1005.8
20260506211557 7 5 3.2 14.5 0.10 1.98 1.98 94 1005.8
20260506211058 7 24 4.8 14.5 0.10 1.98 1.98 93 1005.8
20260506210558 7 360 6.4 14.5 0.15 1.98 1.98 93 1005.7
20260506210128 7 355 4.8 14.5 0.15 1.98 1.98 93 1005.7
20260506205557 7 5 6.4 16.1 0.18 2.08 1.98 93 1005.7
20260506205057 7 5 8.0 16.1 0.20 2.08 1.98 94 1005.6
20260506204557 7 355 6.4 16.1 0.20 2.08 1.98 93 1005.6
20260506204056 7 65 6.4 17.7 0.23 2.08 1.98 93 1005.7
20260506203557 7 42 8.0 17.7 0.25 2.08 1.98 94 1005.6
20260506203102 7 30 4.8 12.9 0.23 2.06 1.96 94 1005.8
20260506202558 7 30 4.8 17.7 0.23 2.03 1.93 93 1005.8
20260506202058 7 38 6.4 17.7 0.18 1.98 1.88 93 1005.7
20260506201557 7 5 6.4 17.7 0.18 1.98 1.88 93 1005.7
20260506201058 7 355 6.4 14.5 0.18 1.98 1.88 93 1005.6
20260506200557 7 31 4.8 11.3 0.15 1.93 1.83 94 1005.6
20260506200146 7 288 3.2 12.9 0.15 1.93 1.83 94 1005.7
20260506195557 7 5 4.8 14.5 0.13 1.91 1.80 93 1005.8
20260506195057 7 342 4.8 16.1 0.10 1.88 1.78 94 1005.6
20260506194607 7 43 4.8 16.1 0.10 1.88 1.78 93 1005.6
20260506194058 7 360 8.0 14.5 0.10 1.85 1.75 93 1005.5
20260506193558 7 27 4.8 14.5 0.08 1.83 1.73 93 1005.5
20260506193057 7 360 6.4 14.5 0.08 1.83 1.73 93 1005.6
20260506192557 7 35 6.4 14.5 0.05 1.80 1.70 93 1005.7
20260506192057 7 10 3.2 16.1 0.05 1.80 1.70 94 1005.7
20260506191555 7 22 8.0 16.1 0.05 1.80 1.70 94 1005.6
20260506191058 7 30 6.4 17.7 0.05 1.80 1.70 93 1005.6
20260506190558 7 18 4.8 17.7 0.03 1.78 1.68 93 1005.8
20260506190057 7 34 6.4 17.7 0.05 1.78 1.68 93 1005.7
20260506185557 7 55 4.8 14.5 0.05 1.78 1.68 93 1005.7
20260506185058 8 71 6.4 16.1 0.08 1.78 1.68 93 1005.6
20260506184601 8 17 4.8 16.1 0.10 1.78 1.68 93 1005.5
20260506184057 8 57 8.0 12.9 0.10 1.75 1.65 93 1005.5
20260506183558 8 327 1.6 9.7 0.13 1.75 1.65 93 1005.7
20260506183102 9 10 4.8 11.3 0.15 1.75 1.65 93 1005.6
20260506182557 9 5 6.4 14.5 0.18 1.75 1.65 93 1005.6
20260506182100 10 68 4.8 14.5 0.20 1.75 1.65 93 1005.4
20260506181555 10 36 8.0 14.5 0.20 1.75 1.65 93 1005.6
20260506181058 10 67 6.4 14.5 0.20 1.75 1.65 93 1005.6
20260506180602 11 21 4.8 9.7 0.20 1.75 1.65 94 1005.8
20260506180105 11 64 4.8 14.5 0.20 1.73 1.63 93 1005.9
20260506175558 11 360 1.6 14.5 0.23 1.73 1.63 93 1006.0
20260506175100 11 34 1.6 14.5 0.23 1.70 1.60 93 1006.1
20260506174601 12 301 1.6 6.4 0.20 1.68 1.57 94 1006.1
20260506174058 12 259 3.2 6.4 0.20 1.65 1.55 94 1006.1
20260506173559 12 0 0.0 6.4 0.20 1.63 1.52 94 1006.2
20260506173122 12 138 0.0 4.8 0.20 1.60 1.47 94 1006.1
20260506172600 12 0 0.0 4.8 0.20 1.57 1.47 94 1006.1
20260506172057 12 88 0.0 6.4 0.20 1.55 1.45 94 1006.1
20260506171602 12 267 1.6 6.4 0.23 1.55 1.45 94 1006.2
20260506171056 12 103 0.0 8.0 0.25 1.55 1.45 94 1006.2
20260506170559 12 0 0.0 8.0 0.25 1.55 1.45 94 1006.4
20260506170058 12 221 1.6 4.8 0.25 1.52 1.42 94 1006.3
20260506165558 12 270 0.0 8.0 0.23 1.47 1.40 94 1006.4
20260506165056 12 180 0.0 8.0 0.20 1.47 1.37 94 1006.3
20260506164559 12 0 0.0 4.8 0.23 1.47 1.37 94 1006.3
20260506164058 12 60 0.0 4.8 0.20 1.45 1.32 94 1006.3
20260506163557 12 0 0.0 3.2 0.20 1.42 1.32 94 1006.3
20260506163103 12 0 0.0 3.2 0.20 1.40 1.30 94 1006.4
20260506162558 12 0 0.0 3.2 0.20 1.37 1.27 94 1006.5
20260506162055 12 0 0.0 6.4 0.18 1.32 1.24 94 1006.5
20260506161559 12 0 0.0 12.9 0.18 1.32 1.22 94 1006.6
20260506161058 12 198 1.6 12.9 0.15 1.30 1.19 94 1006.7
20260506160556 12 216 1.6 12.9 0.18 1.30 1.19 94 1006.8
20260506160108 12 154 1.6 9.7 0.18 1.27 1.17 94 1006.8
20260506155558 12 0 0.0 4.8 0.20 1.27 1.17 94 1006.9
20260506155056 12 0 0.0 6.4 0.23 1.27 1.17 94 1006.9
20260506154600 12 0 0.0 6.4 0.23 1.24 1.14 94 1007.0
20260506154056 12 214 3.2 8.0 0.23 1.24 1.14 94 1007.1
20260506153555 11 0 0.0 8.0 0.20 1.22 1.12 94 1007.1
20260506153058 11 220 0.0 4.8 0.20 1.19 1.09 94 1007.1
20260506152556 12 236 0.0 4.8 0.18 1.17 1.07 94 1007.1
20260506152059 11 238 0.0 4.8 0.18 1.17 1.07 94 1007.1
20260506151556 11 0 0.0 3.2 0.18 1.14 1.04 94 1007.1
20260506151058 11 81 0.0 6.4 0.18 1.14 1.04 94 1007.3
20260506150557 11 0 0.0 6.4 0.18 1.12 1.02 94 1007.4
20260506145602 11 211 0.0 3.2 0.18 1.07 0.97 94 1007.5
20260506145058 11 234 0.0 3.2 0.15 1.04 0.94 94 1007.5
20260506144557 11 0 0.0 4.8 0.15 1.02 0.91 93 1007.5
20260506144056 11 0 0.0 4.8 0.15 1.02 0.91 93 1007.6
20260506143556 11 234 0.0 4.8 0.18 1.02 0.91 94 1007.7
20260506143058 11 234 0.0 6.4 0.15 0.99 0.89 93 1007.6
20260506142555 11 234 3.2 6.4 0.15 0.99 0.89 93 1007.6
20260506142057 11 244 0.0 0.0 0.18 0.99 0.89 93 1007.6
20260506141556 11 0 0.0 0.0 0.15 0.97 0.86 93 1007.7
20260506141058 11 0 0.0 0.0 0.18 0.97 0.86 94 1007.6
20260506140600 11 0 0.0 0.0 0.15 0.94 0.84 93 1007.7
20260506140059 11 0 0.0 0.0 0.15 0.91 0.81 94 1007.7
20260506135557 11 0 0.0 0.0 0.13 0.89 0.79 93 1007.8
20260506135057 11 0 0.0 0.0 0.15 0.89 0.79 93 1007.8
20260506134620 10 0 0.0 0.0 0.15 0.86 0.76 93 1007.9
20260506134100 10 0 0.0 0.0 0.15 0.86 0.76 93 1007.9
20260506133556 10 0 0.0 0.0 0.13 0.84 0.74 93 1008.0
20260506133058 10 0 0.0 0.0 0.13 0.84 0.74 93 1008.0
20260506132556 11 0 0.0 0.0 0.13 0.84 0.74 93 1007.9
20260506132056 11 0 0.0 4.8 0.10 0.81 0.71 93 1007.9
20260506131609 10 0 0.0 4.8 0.10 0.81 0.71 93 1007.8
20260506131056 10 360 0.0 6.4 0.10 0.79 0.69 93 1008.0
20260506130556 10 9 1.6 6.4 0.10 0.79 0.69 93 1008.0
20260506130058 10 40 1.6 6.4 0.08 0.76 0.66 93 1008.0
20260506125555 10 321 1.6 4.8 0.08 0.76 0.66 93 1008.4
20260506125055 10 5 0.0 3.2 0.05 0.74 0.64 93 1008.4
20260506124558 10 0 0.0 4.8 0.03 0.71 0.61 93 1008.3
20260506124058 10 5 1.6 4.8 0.03 0.71 0.61 93 1008.3
20260506123558 10 311 0.0 4.8 0.03 0.71 0.61 93 1008.5
20260506123057 10 0 1.6 6.4 0.03 0.71 0.61 93 1008.4
20260506122556 10 0 1.6 6.4 0.03 0.71 0.61 93 1008.3
20260506122057 10 0 3.2 16.1 0.03 0.71 0.61 93 1008.2
20260506121605 10 222 9.7 16.1 0.03 0.71 0.61 93 1008.4
20260506121056 10 69 6.4 12.9 0.00 0.69 0.58 93 1007.7
20260506120556 10 350 0.0 9.7 0.00 0.69 0.58 93 1008.6
20260506115558 10 293 1.6 6.4 0.00 0.69 0.58 93 1008.6
20260506115055 10 69 1.6 6.4 0.00 0.69 0.58 93 1008.5
20260506114557 10 0 1.6 6.4 0.00 0.69 0.58 93 1008.8
20260506114059 10 42 0.0 8.0 0.00 0.69 0.58 93 1008.6
20260506113602 10 344 3.2 8.0 0.00 0.69 0.58 93 1008.5
20260506113101 10 20 3.2 8.0 0.00 0.69 0.58 93 1008.3
20260506112600 10 355 0.0 3.2 0.00 0.69 0.58 93 1008.4
20260506112100 10 0 0.0 3.2 0.00 0.69 0.58 93 1008.5
20260506111622 10 82 0.0 0.0 0.00 0.69 0.58 93 1008.4
20260506111058 10 0 0.0 0.0 0.00 0.69 0.58 93 1008.5
20260506110558 10 0 0.0 1.6 0.00 0.69 0.58 93 1008.4
20260506110109 10 0 0.0 1.6 0.00 0.69 0.58 93 1008.5
20260506105558 10 0 0.0 3.2 0.00 0.69 0.58 93 1008.4
20260506105058 10 0 0.0 4.8 0.00 0.69 0.58 93 1008.4
20260506104607 10 360 0.0 6.4 0.00 0.69 0.58 93 1008.4
20260506104058 10 24 1.6 6.4 0.00 0.69 0.58 93 1008.3
20260506103559 10 44 3.2 6.4 0.00 0.69 0.58 93 1008.2
20260506103106 10 16 1.6 6.4 0.00 0.69 0.58 93 1008.4
20260506102558 10 16 1.6 6.4 0.00 0.69 0.58 93 1008.4
20260506102059 10 29 3.2 6.4 0.00 0.69 0.58 93 1008.0
20260506101602 10 22 3.2 6.4 0.00 0.69 0.58 93 1008.1
20260506101057 10 15 1.6 6.4 0.00 0.69 0.58 93 1008.5
20260506100603 10 59 1.6 6.4 0.00 0.69 0.58 93 1008.2
20260506100106 10 52 1.6 4.8 0.00 0.69 0.58 93 1008.4
20260506095600 10 51 1.6 4.8 0.00 0.69 0.58 93 1008.6
20260506095100 10 51 1.6 3.2 0.00 0.69 0.58 93 1008.6
20260506094601 10 0 0.0 4.8 0.00 0.69 0.58 92 1008.5
20260506094100 10 51 1.6 4.8 0.00 0.69 0.58 92 1008.6
20260506093602 10 51 1.6 4.8 0.00 0.69 0.58 92 1008.6
20260506093100 10 51 1.6 6.4 0.00 0.69 0.58 92 1008.6
20260506092557 10 51 3.2 6.4 0.00 0.69 0.58 92 1008.7
20260506092102 10 54 3.2 6.4 0.00 0.69 0.58 92 1008.7
20260506091600 10 96 3.2 6.4 0.00 0.69 0.58 92 1008.6
20260506091100 10 55 3.2 8.0 0.00 0.69 0.58 92 1008.8
20260506090600 10 67 3.2 8.0 0.00 0.69 0.58 92 1008.9
20260506090059 10 88 3.2 12.9 0.00 0.69 0.58 92 1009.0
20260506085557 10 67 3.2 12.9 0.00 0.69 0.58 92 1008.9
20260506085100 10 95 1.6 6.4 0.00 0.69 0.58 92 1008.7
20260506084606 10 0 0.0 0.0 0.00 0.69 0.58 92 1008.7
20260506084100 10 0 0.0 0.0 0.00 0.69 0.58 92 1008.9
20260506083600 10 0 0.0 0.0 0.00 0.69 0.58 92 1009.0
20260506083121 10 0 0.0 0.0 0.00 0.69 0.58 92 1009.1
20260506082600 10 0 0.0 0.0 0.00 0.69 0.58 92 1009.3
20260506082057 10 0 0.0 0.0 0.00 0.69 0.58 92 1009.2
20260506081604 10 0 0.0 0.0 0.00 0.69 0.58 92 1009.0
20260506081100 10 0 0.0 0.0 0.00 0.69 0.58 92 1009.1
20260506080600 10 0 0.0 0.0 0.00 0.69 0.58 92 1009.2
20260506073059 10 0 0.0 0.0 0.00 0.69 0.58 91 1008.5
20260506072600 10 0 0.0 0.0 0.00 0.69 0.58 91 1008.7
20260506072100 10 0 0.0 0.0 0.00 0.69 0.58 91 1008.7
20260506071559 11 0 0.0 0.0 0.00 0.69 0.58 91 1008.7
20260506071059 11 0 0.0 0.0 0.03 0.69 0.58 91 1008.8
20260506070559 11 0 0.0 0.0 0.03 0.69 0.58 91 1008.7
20260506070124 11 0 0.0 3.2 0.03 0.69 0.58 90 1008.6
20260506062059 11 0 0.0 0.0 0.13 0.69 0.58 91 1009.0
20260506061600 11 0 0.0 1.6 0.23 0.69 0.58 90 1008.9
20260506061100 11 0 0.0 1.6 0.33 0.66 0.56 90 1009.0
20260506060556 11 0 0.0 3.2 0.38 0.66 0.56 90 1009.0
20260506051102 12 238 6.4 19.3 0.23 0.33 0.23 84 1010.0
20260506050559 13 224 4.8 11.3 0.18 0.28 0.18 84 1009.9
20260506050109 13 0 3.2 9.7 0.18 0.28 0.18 84 1009.0
20260506045059 13 319 0.0 11.3 0.15 0.25 0.15 84 1009.0
20260506044558 13 0 3.2 12.9 0.15 0.25 0.15 84 1009.2
20260506044059 13 0 4.8 12.9 0.10 0.20 0.10 84 1009.5
20260506043557 13 257 3.2 11.3 0.08 0.18 0.08 84 1009.3
20260506043059 13 250 1.6 11.3 0.05 0.15 0.05 84 1009.0
20260506042559 13 248 1.6 11.3 0.00 0.10 0.00 84 1009.1
20260506042100 13 0 0.0 0.0 0.00 0.10 0.00 83 1009.1
20260506041619 13 0 0.0 0.0 0.00 0.10 0.00 83 1008.9
20260506041059 13 0 0.0 0.0 0.00 0.10 0.00 82 1008.8
20260506040559 14 0 0.0 3.2 0.00 0.10 0.00 80 1008.7
20260506035556 14 211 0.0 8.0 0.00 0.10 0.10 79 1008.7
20260506035056 15 204 1.6 8.0 0.00 0.10 0.10 78 1008.7
20260506034601 15 213 3.2 8.0 0.00 0.10 0.10 78 1008.5
20260506034056 14 213 1.6 4.8 0.00 0.10 0.10 79 1008.5
20260506033559 14 196 0.0 4.8 0.00 0.10 0.10 79 1008.5
20260506033059 14 0 0.0 1.6 0.00 0.10 0.10 79 1008.2
20260506032600 14 0 0.0 3.2 0.00 0.10 0.10 79 1008.2
20260506032102 14 0 0.0 3.2 0.00 0.10 0.10 79 1008.2
20260506031602 14 185 0.0 1.6 0.00 0.10 0.10 80 1008.3
20260506031101 14 0 0.0 1.6 0.00 0.10 0.10 79 1008.1
20260506030600 14 0 0.0 1.6 0.00 0.10 0.10 79 1008.2
20260506030059 14 0 0.0 3.2 0.00 0.10 0.10 78 1008.1
20260506025603 14 0 0.0 3.2 0.00 0.10 0.10 78 1008.2
20260506025059 14 0 0.0 3.2 0.00 0.10 0.10 78 1007.9
20260506024607 14 0 0.0 0.0 0.00 0.10 0.10 78 1007.9
20260506024057 14 0 0.0 0.0 0.00 0.10 0.10 79 1008.1
20260506023558 14 0 0.0 0.0 0.00 0.10 0.10 79 1008.2
20260506023057 14 0 0.0 0.0 0.00 0.10 0.10 79 1008.2
20260506022559 14 0 0.0 0.0 0.00 0.10 0.10 80 1008.2
20260506022057 14 0 0.0 0.0 0.00 0.10 0.10 80 1008.4
20260506021601 13 0 0.0 0.0 0.00 0.10 0.10 81 1008.3
20260506021057 13 0 0.0 0.0 0.00 0.10 0.10 81 1008.5
20260506020559 13 0 0.0 0.0 0.00 0.10 0.10 81 1008.4
20260506020111 13 0 0.0 0.0 0.00 0.10 0.10 80 1008.3
20260506015557 13 0 0.0 0.0 0.00 0.10 0.10 80 1008.0
20260506015058 13 0 0.0 0.0 0.00 0.10 0.10 80 1007.9
20260506014614 13 0 0.0 6.4 0.00 0.10 0.10 80 1007.8
20260506014100 13 0 0.0 6.4 0.00 0.10 0.10 80 1007.7
20260506013600 13 0 0.0 1.6 0.00 0.10 0.10 80 1007.5
20260506013102 13 0 0.0 3.2 0.00 0.10 0.10 79 1007.6
20260506012600 13 0 0.0 3.2 0.00 0.10 0.10 79 1007.5
20260506012056 13 0 0.0 4.8 0.00 0.10 0.10 79 1007.6
20260506011628 13 102 0.0 6.4 0.00 0.10 0.10 79 1007.5
20260506011057 14 102 1.6 6.4 0.00 0.10 0.10 79 1007.5
20260506010601 14 102 1.6 4.8 0.00 0.10 0.10 79 1007.3
20260506010059 14 77 0.0 4.8 0.00 0.10 0.10 79 1007.3
20260506005556 14 77 1.6 6.4 0.00 0.10 0.10 79 1007.3
20260506005056 14 77 1.6 6.4 0.00 0.10 0.10 79 1007.3
20260506004607 14 77 3.2 4.8 0.00 0.10 0.10 80 1007.2
20260506004059 14 77 1.6 4.8 0.00 0.10 0.10 80 1007.3
20260506003559 14 77 1.6 4.8 0.00 0.10 0.10 80 1007.3
20260506003057 14 77 1.6 4.8 0.00 0.10 0.10 79 1007.2
20260506002601 14 77 1.6 6.4 0.00 0.10 0.10 80 1007.3
20260506002100 15 77 1.6 6.4 0.00 0.10 0.10 79 1007.1
20260506001605 15 76 3.2 6.4 0.00 0.10 0.10 78 1007.1
20260506001059 15 92 3.2 6.4 0.00 0.10 0.10 78 1007.1
20260506000602 15 100 1.6 6.4 0.00 0.10 0.10 77 1007.3
20260506000122 15 102 0.0 4.8 0.00 0.10 0.10 77 1007.4
20260505235600 15 95 0.0 4.8 0.00 0.10 0.10 77 1007.5
20260505235057 15 95 0.0 4.8 0.00 0.10 0.10 76 1007.1
20260505234601 15 0 0.0 4.8 0.00 0.10 0.10 76 1007.3
20260505234057 15 0 0.0 4.8 0.00 0.10 0.10 78 1007.3
20260505233556 15 0 0.0 6.4 0.00 0.10 0.10 77 1007.3
20260505233102 15 0 0.0 6.4 0.00 0.10 0.10 77 1007.3
20260505232557 15 0 0.0 3.2 0.00 0.10 0.10 77 1007.2
20260505232101 15 0 0.0 3.2 0.00 0.10 0.10 77 1007.2
20260505231612 15 0 0.0 3.2 0.00 0.10 0.10 79 1007.1
20260505231059 15 0 0.0 4.8 0.00 0.10 0.10 79 1007.0
20260505230559 15 0 0.0 4.8 0.00 0.10 0.10 79 1007.0
20260505230108 15 107 1.6 4.8 0.00 0.10 0.10 79 1006.8
20260505225559 15 107 1.6 4.8 0.00 0.10 0.10 79 1006.8
20260505225059 15 0 1.6 4.8 0.00 0.10 0.10 78 1006.9
20260505224559 16 0 0.0 3.2 0.00 0.10 0.10 76 1006.9
20260505224058 16 255 0.0 4.8 0.00 0.10 0.10 75 1006.7
20260505223600 16 0 0.0 4.8 0.00 0.10 0.10 74 1006.9
20260505223056 16 235 1.6 16.1 0.00 0.10 0.10 72 1006.7
20260505222600 16 236 6.4 16.1 0.00 0.10 0.10 71 1006.8
20260505222057 16 217 1.6 20.9 0.00 0.10 0.10 71 1006.8
20260505221603 16 257 3.2 20.9 0.00 0.10 0.10 72 1006.6
20260505221059 16 330 9.7 20.9 0.00 0.10 0.10 72 1006.6
20260505220602 16 210 6.4 19.3 0.00 0.10 0.10 76 1006.6
20260505220058 16 232 1.6 12.9 0.00 0.10 0.10 80 1006.6
20260505215556 16 0 1.6 14.5 0.00 0.10 0.10 81 1006.7
20260505215057 16 240 6.4 14.5 0.00 0.10 0.10 80 1007.0
20260505214557 16 184 4.8 11.3 0.00 0.10 0.10 79 1006.8
20260505214100 16 249 0.0 4.8 0.00 0.10 0.10 80 1006.6
20260505213558 16 0 0.0 6.4 0.00 0.10 0.10 78 1006.1
20260505213059 16 111 1.6 6.4 0.00 0.10 0.10 79 1005.9
20260505212601 17 151 0.0 17.7 0.00 0.10 0.10 80 1006.0